Location: Detroit
(42.3310°N, 83.0460°W)
Time: 17:47:02
(UTC-04:00)

ISS - Visible Passes

Search period start: 01 October 2022 00:00
Search period end: 11 October 2022 00:00
Orbit: 416 x 420 km, 51.6° (Epoch: 01 October)

Date Brightness Start Highest point End Pass type
(mag) Time Alt. Az. Time Alt. Az. Time Alt. Az.
01 Oct -3.9 20:44:09 10° NW 20:47:32 78° NNE 20:48:00 62° E visible
02 Oct -3.4 19:56:30 10° NW 19:59:49 49° NNE 20:02:24 15° ESE visible
02 Oct -1.2 21:33:44 10° W 21:35:23 19° WSW 21:35:23 19° WSW visible
03 Oct -2.5 20:46:04 10° WNW 20:49:14 36° SW 20:50:15 29° S visible
04 Oct -3.3 19:58:58 10° WNW 20:02:21 62° SW 20:05:36 11° SE visible
05 Oct -0.9 20:50:32 10° W 20:52:11 13° SW 20:53:51 10° SSW visible
06 Oct -1.3 20:03:28 10° W 20:06:08 21° SW 20:08:47 10° S visible
09 Oct -0.4 19:25:04 10° WSW 19:26:15 11° SW 19:27:24 10° SSW visible
